| time (UTC) | temp F | wind direction | speed MPH | gust MPH | rain 1hr in | rain 24hr in | rain mn in | humidity % | barometer mb |
| 20260510000100 | 59 | 254 | 0.0 | 1.0 | 0.00 | 0.01 | 0.00 | 73 | 1027.8 |
| 20260509235602 | 59 | 260 | 0.0 | 2.0 | 0.00 | 0.02 | 0.00 | 73 | 1027.8 |
| 20260509235101 | 59 | 165 | 0.0 | 2.0 | 0.00 | 0.02 | 0.00 | 73 | 1027.8 |
| 20260509234558 | 59 | 161 | 0.0 | 2.0 | 0.00 | 0.02 | 0.00 | 73 | 1027.8 |
| 20260509234058 | 59 | 168 | 0.0 | 2.0 | 0.00 | 0.02 | 0.00 | 73 | 1027.8 |
| 20260509233559 | 59 | 157 | 0.0 | 2.0 | 0.00 | 0.02 | 0.00 | 74 | 1027.7 |
| 20260509233057 | 59 | 164 | 0.0 | 2.0 | 0.00 | 0.02 | 0.00 | 74 | 1027.8 |
| 20260509232557 | 59 | 159 | 0.0 | 2.0 | 0.00 | 0.02 | 0.00 | 74 | 1027.8 |
| 20260509232056 | 59 | 173 | 0.0 | 1.0 | 0.00 | 0.02 | 0.00 | 75 | 1027.8 |
| 20260509231606 | 58 | 223 | 0.0 | 1.0 | 0.00 | 0.02 | 0.00 | 76 | 1027.8 |
| 20260509231056 | 58 | 253 | 0.0 | 1.0 | 0.00 | 0.02 | 0.00 | 77 | 1027.8 |
| 20260509230557 | 58 | 185 | 0.0 | 1.0 | 0.00 | 0.02 | 0.00 | 78 | 1027.7 |
| 20260509230052 | 58 | 194 | 0.0 | 1.0 | 0.00 | 0.02 | 0.00 | 78 | 1027.7 |
| 20260509225551 | 57 | 196 | 0.0 | 1.0 | 0.00 | 0.02 | 0.00 | 79 | 1027.7 |
| 20260509225049 | 57 | 185 | 0.0 | 1.0 | 0.00 | 0.02 | 0.00 | 79 | 1027.7 |
| 20260509224548 | 57 | 185 | 0.0 | 1.0 | 0.00 | 0.02 | 0.00 | 80 | 1027.7 |
| 20260509223547 | 56 | 157 | 0.0 | 1.0 | 0.00 | 0.02 | 0.00 | 83 | 1027.5 |
| 20260509223050 | 56 | 157 | 0.0 | 2.0 | 0.00 | 0.02 | 0.00 | 85 | 1027.5 |
| 20260509222549 | 55 | 146 | 0.0 | 2.0 | 0.00 | 0.02 | 0.00 | 86 | 1027.5 |
| 20260509222045 | 55 | 178 | 0.0 | 1.0 | 0.00 | 0.02 | 0.00 | 87 | 1027.5 |
| 20260509221546 | 55 | 186 | 0.0 | 0.0 | 0.00 | 0.02 | 0.00 | 88 | 1027.4 |
| 20260509221043 | 55 | 184 | 0.0 | 0.0 | 0.00 | 0.02 | 0.00 | 89 | 1027.3 |
| 20260509220546 | 55 | 185 | 0.0 | 0.0 | 0.00 | 0.02 | 0.00 | 89 | 1027.2 |
| 20260509220044 | 55 | 185 | 0.0 | 0.0 | 0.00 | 0.02 | 0.00 | 89 | 1027.2 |
| 20260509215545 | 55 | 185 | 0.0 | 0.0 | 0.00 | 0.03 | 0.00 | 89 | 1027.2 |
| 20260509215041 | 55 | 185 | 0.0 | 0.0 | 0.00 | 0.03 | 0.00 | 89 | 1027.1 |
| 20260509214541 | 55 | 185 | 0.0 | 0.0 | 0.00 | 0.03 | 0.00 | 89 | 1027.0 |
| 20260509214043 | 55 | 185 | 0.0 | 0.0 | 0.00 | 0.03 | 0.00 | 89 | 1026.9 |
| 20260509213539 | 54 | 185 | 0.0 | 0.0 | 0.00 | 0.03 | 0.00 | 89 | 1026.9 |
| 20260509213039 | 55 | 185 | 0.0 | 0.0 | 0.00 | 0.03 | 0.00 | 89 | 1026.8 |
| 20260509212538 | 55 | 172 | 0.0 | 0.0 | 0.00 | 0.03 | 0.00 | 89 | 1026.8 |
| 20260509212037 | 55 | 172 | 0.0 | 0.0 | 0.00 | 0.03 | 0.00 | 89 | 1026.7 |
| 20260509211537 | 55 | 172 | 0.0 | 0.0 | 0.00 | 0.03 | 0.00 | 89 | 1026.7 |
| 20260509211037 | 55 | 172 | 0.0 | 0.0 | 0.00 | 0.03 | 0.00 | 88 | 1026.5 |
| 20260509210536 | 55 | 172 | 0.0 | 0.0 | 0.00 | 0.03 | 0.00 | 88 | 1026.5 |
| 20260509210047 | 55 | 172 | 0.0 | 0.0 | 0.00 | 0.03 | 0.00 | 88 | 1026.5 |
| 20260509205534 | 55 | 172 | 0.0 | 0.0 | 0.00 | 0.03 | 0.00 | 88 | 1026.4 |
| 20260509205035 | 55 | 172 | 0.0 | 0.0 | 0.00 | 0.03 | 0.00 | 88 | 1026.4 |
| 20260509204534 | 55 | 172 | 0.0 | 0.0 | 0.00 | 0.03 | 0.00 | 88 | 1026.3 |
| 20260509204033 | 55 | 172 | 0.0 | 0.0 | 0.00 | 0.03 | 0.00 | 88 | 1026.3 |
| 20260509203034 | 55 | 172 | 0.0 | 0.0 | 0.00 | 0.03 | 0.00 | 87 | 1026.2 |
| 20260509202534 | 55 | 172 | 0.0 | 0.0 | 0.00 | 0.03 | 0.00 | 87 | 1026.1 |
| 20260509202032 | 55 | 172 | 0.0 | 0.0 | 0.00 | 0.03 | 0.00 | 87 | 1026.1 |
| 20260509201531 | 55 | 172 | 0.0 | 1.0 | 0.00 | 0.03 | 0.00 | 87 | 1026.1 |
| 20260509201030 | 55 | 172 | 0.0 | 2.0 | 0.00 | 0.03 | 0.00 | 88 | 1026.0 |
| 20260509200532 | 55 | 180 | 0.0 | 2.0 | 0.00 | 0.03 | 0.00 | 88 | 1026.0 |
| 20260509200031 | 55 | 180 | 0.0 | 2.0 | 0.00 | 0.03 | 0.00 | 88 | 1025.9 |
| 20260509195531 | 55 | 166 | 0.0 | 1.0 | 0.00 | 0.04 | 0.00 | 88 | 1025.9 |
| 20260509195028 | 55 | 176 | 0.0 | 1.0 | 0.00 | 0.04 | 0.00 | 89 | 1025.9 |
| 20260509194528 | 55 | 177 | 0.0 | 2.0 | 0.00 | 0.04 | 0.00 | 89 | 1025.8 |
| 20260509194028 | 55 | 176 | 0.0 | 1.0 | 0.00 | 0.04 | 0.00 | 89 | 1025.7 |
| 20260509193525 | 55 | 179 | 0.0 | 1.0 | 0.00 | 0.04 | 0.00 | 89 | 1025.7 |
| 20260509193026 | 55 | 179 | 0.0 | 1.0 | 0.00 | 0.04 | 0.00 | 90 | 1025.7 |
| 20260509192525 | 55 | 211 | 0.0 | 1.0 | 0.00 | 0.04 | 0.00 | 90 | 1025.6 |
| 20260509192025 | 55 | 211 | 0.0 | 1.0 | 0.00 | 0.04 | 0.00 | 90 | 1025.6 |
| 20260509191527 | 55 | 211 | 0.0 | 1.0 | 0.00 | 0.04 | 0.00 | 90 | 1025.5 |
| 20260509191025 | 55 | 246 | 0.0 | 0.0 | 0.00 | 0.04 | 0.00 | 90 | 1025.5 |
| 20260509190522 | 55 | 255 | 0.0 | 0.0 | 0.00 | 0.04 | 0.00 | 90 | 1025.4 |
| 20260509190022 | 55 | 255 | 0.0 | 0.0 | 0.00 | 0.04 | 0.00 | 90 | 1025.4 |
| 20260509185524 | 55 | 255 | 0.0 | 0.0 | 0.00 | 0.06 | 0.00 | 90 | 1025.3 |
| 20260509185021 | 55 | 256 | 0.0 | 0.0 | 0.00 | 0.06 | 0.00 | 90 | 1025.2 |
| 20260509184532 | 55 | 256 | 0.0 | 0.0 | 0.00 | 0.06 | 0.00 | 90 | 1025.2 |
| 20260509184020 | 55 | 256 | 0.0 | 0.0 | 0.00 | 0.06 | 0.00 | 90 | 1025.2 |
| 20260509183520 | 55 | 256 | 0.0 | 0.0 | 0.00 | 0.06 | 0.00 | 90 | 1025.1 |
| 20260509183020 | 55 | 256 | 0.0 | 0.0 | 0.00 | 0.06 | 0.00 | 90 | 1025.1 |
| 20260509182519 | 55 | 256 | 0.0 | 0.0 | 0.00 | 0.06 | 0.00 | 90 | 1025.1 |
| 20260509182019 | 55 | 256 | 0.0 | 0.0 | 0.00 | 0.06 | 0.00 | 90 | 1025.0 |
| 20260509181520 | 55 | 257 | 0.0 | 0.0 | 0.00 | 0.06 | 0.00 | 90 | 1024.9 |
| 20260509181019 | 55 | 256 | 0.0 | 1.0 | 0.00 | 0.06 | 0.00 | 90 | 1024.9 |
| 20260509180518 | 55 | 257 | 0.0 | 2.0 | 0.00 | 0.06 | 0.00 | 90 | 1024.8 |
| 20260509180022 | 55 | 154 | 0.0 | 2.0 | 0.00 | 0.06 | 0.00 | 90 | 1024.8 |
| 20260509175518 | 55 | 165 | 0.0 | 2.0 | 0.00 | 0.07 | 0.00 | 90 | 1024.8 |
| 20260509175017 | 55 | 167 | 0.0 | 2.0 | 0.00 | 0.07 | 0.00 | 90 | 1024.8 |
| 20260509174518 | 55 | 168 | 0.0 | 2.0 | 0.00 | 0.07 | 0.00 | 90 | 1024.8 |
| 20260509174017 | 55 | 188 | 0.0 | 3.0 | 0.00 | 0.07 | 0.00 | 91 | 1024.9 |
| 20260509173517 | 55 | 189 | 0.0 | 3.0 | 0.00 | 0.07 | 0.00 | 91 | 1024.8 |
| 20260509173120 | 55 | 195 | 0.0 | 2.0 | 0.00 | 0.07 | 0.00 | 91 | 1024.8 |
| 20260509172517 | 55 | 185 | 0.0 | 4.0 | 0.00 | 0.07 | 0.00 | 91 | 1024.8 |
| 20260509172017 | 55 | 265 | 1.0 | 4.0 | 0.00 | 0.07 | 0.00 | 91 | 1024.8 |
| 20260509171523 | 55 | 175 | 0.0 | 1.0 | 0.00 | 0.07 | 0.00 | 91 | 1024.9 |
| 20260509171015 | 55 | 166 | 0.0 | 1.0 | 0.00 | 0.07 | 0.00 | 91 | 1024.8 |
| 20260509170515 | 55 | 175 | 0.0 | 1.0 | 0.00 | 0.07 | 0.00 | 92 | 1024.9 |
| 20260509170017 | 55 | 176 | 0.0 | 0.0 | 0.00 | 0.07 | 0.00 | 92 | 1024.9 |
| 20260509165513 | 55 | 176 | 0.0 | 0.0 | 0.00 | 0.09 | 0.00 | 92 | 1024.9 |
| 20260509165014 | 55 | 176 | 0.0 | 0.0 | 0.00 | 0.09 | 0.00 | 91 | 1024.9 |
| 20260509164516 | 55 | 177 | 0.0 | 0.0 | 0.00 | 0.09 | 0.00 | 92 | 1024.9 |
| 20260509164014 | 55 | 177 | 0.0 | 0.0 | 0.00 | 0.09 | 0.00 | 91 | 1024.9 |
| 20260509163512 | 55 | 176 | 0.0 | 0.0 | 0.00 | 0.09 | 0.00 | 91 | 1025.0 |
| 20260509163021 | 55 | 177 | 0.0 | 0.0 | 0.00 | 0.09 | 0.00 | 91 | 1025.0 |
| 20260509162512 | 55 | 176 | 0.0 | 0.0 | 0.00 | 0.09 | 0.00 | 91 | 1025.0 |
| 20260509162010 | 55 | 176 | 0.0 | 0.0 | 0.00 | 0.09 | 0.00 | 91 | 1025.0 |
| 20260509161511 | 55 | 177 | 0.0 | 2.0 | 0.00 | 0.09 | 0.00 | 91 | 1025.0 |
| 20260509161011 | 56 | 176 | 0.0 | 2.0 | 0.00 | 0.09 | 0.00 | 91 | 1025.0 |
| 20260509160510 | 56 | 259 | 0.0 | 2.0 | 0.00 | 0.09 | 0.00 | 91 | 1025.0 |
| 20260509160016 | 56 | 210 | 0.0 | 2.0 | 0.00 | 0.09 | 0.00 | 91 | 1025.1 |
| 20260509155508 | 56 | 180 | 0.0 | 3.0 | 0.00 | 0.09 | 0.00 | 91 | 1025.0 |
| 20260509155012 | 56 | 177 | 0.0 | 2.0 | 0.00 | 0.09 | 0.00 | 91 | 1024.9 |
| 20260509154508 | 56 | 282 | 0.0 | 2.0 | 0.00 | 0.09 | 0.00 | 91 | 1024.9 |
| 20260509154008 | 56 | 281 | 0.0 | 4.0 | 0.00 | 0.09 | 0.00 | 91 | 1025.0 |
| 20260509153508 | 56 | 286 | 0.0 | 4.0 | 0.00 | 0.09 | 0.00 | 91 | 1025.0 |
| 20260509153011 | 56 | 323 | 0.0 | 3.0 | 0.00 | 0.09 | 0.00 | 90 | 1025.0 |
| 20260509152006 | 56 | 261 | 0.0 | 2.0 | 0.00 | 0.09 | 0.00 | 90 | 1024.9 |
| 20260509151506 | 56 | 182 | 0.0 | 3.0 | 0.00 | 0.09 | 0.00 | 90 | 1024.9 |
| 20260509151008 | 56 | 182 | 0.0 | 4.0 | 0.00 | 0.09 | 0.00 | 91 | 1025.0 |
| 20260509150505 | 56 | 181 | 0.0 | 3.0 | 0.00 | 0.09 | 0.00 | 91 | 1025.0 |
| 20260509150008 | 56 | 258 | 0.0 | 3.0 | 0.00 | 0.09 | 0.00 | 91 | 1024.9 |
| 20260509145504 | 56 | 180 | 0.0 | 3.0 | 0.00 | 0.09 | 0.00 | 91 | 1025.0 |
| 20260509145002 | 56 | 2 | 0.0 | 2.0 | 0.00 | 0.09 | 0.00 | 91 | 1025.0 |
| 20260509144502 | 56 | 166 | 0.0 | 2.0 | 0.00 | 0.09 | 0.00 | 91 | 1024.9 |
| 20260509144002 | 56 | 294 | 0.0 | 1.0 | 0.00 | 0.09 | 0.00 | 91 | 1024.9 |
| 20260509143503 | 56 | 271 | 0.0 | 1.0 | 0.00 | 0.09 | 0.00 | 91 | 1024.9 |
| 20260509143000 | 56 | 258 | 0.0 | 1.0 | 0.00 | 0.09 | 0.00 | 91 | 1024.9 |
| 20260509142603 | 56 | 258 | 0.0 | 1.0 | 0.00 | 0.09 | 0.00 | 91 | 1024.9 |
| 20260509142101 | 56 | 186 | 0.0 | 1.0 | 0.00 | 0.09 | 0.00 | 91 | 1024.9 |
| 20260509141559 | 56 | 234 | 0.0 | 1.0 | 0.00 | 0.09 | 0.00 | 91 | 1024.9 |
| 20260509141059 | 56 | 180 | 0.0 | 1.0 | 0.00 | 0.09 | 0.00 | 91 | 1024.9 |
| 20260509140559 | 56 | 180 | 0.0 | 3.0 | 0.00 | 0.09 | 0.00 | 91 | 1024.9 |
| 20260509140058 | 56 | 180 | 0.0 | 2.0 | 0.00 | 0.09 | 0.00 | 91 | 1024.9 |
| 20260509135557 | 56 | 183 | 0.0 | 1.0 | 0.00 | 0.09 | 0.00 | 91 | 1024.9 |
| 20260509135101 | 56 | 176 | 0.0 | 2.0 | 0.00 | 0.09 | 0.00 | 91 | 1024.9 |
| 20260509134557 | 56 | 187 | 0.0 | 2.0 | 0.00 | 0.09 | 0.00 | 91 | 1024.9 |
| 20260509134057 | 56 | 183 | 0.0 | 1.0 | 0.00 | 0.09 | 0.00 | 91 | 1024.8 |
| 20260509133557 | 56 | 140 | 0.0 | 1.0 | 0.00 | 0.09 | 0.00 | 91 | 1024.9 |
| 20260509133058 | 56 | 241 | 0.0 | 1.0 | 0.00 | 0.09 | 0.00 | 90 | 1024.9 |
| 20260509132555 | 56 | 184 | 0.0 | 0.0 | 0.00 | 0.09 | 0.00 | 90 | 1024.9 |
| 20260509132156 | 56 | 184 | 0.0 | 1.0 | 0.00 | 0.09 | 0.00 | 90 | 1024.9 |
| 20260509131603 | 56 | 183 | 0.0 | 1.0 | 0.00 | 0.09 | 0.00 | 90 | 1025.0 |
| 20260509131053 | 56 | 176 | 0.0 | 1.0 | 0.00 | 0.09 | 0.00 | 90 | 1025.0 |
| 20260509130554 | 56 | 286 | 0.0 | 2.0 | 0.00 | 0.09 | 0.00 | 90 | 1025.0 |
| 20260509130125 | 56 | 189 | 0.0 | 2.0 | 0.00 | 0.09 | 0.00 | 90 | 1025.0 |
| 20260509125553 | 56 | 188 | 0.0 | 3.0 | 0.00 | 0.09 | 0.00 | 90 | 1025.0 |
| 20260509125052 | 57 | 194 | 0.0 | 3.0 | 0.00 | 0.09 | 0.00 | 90 | 1025.0 |
| 20260509124553 | 57 | 283 | 0.0 | 2.0 | 0.00 | 0.09 | 0.00 | 90 | 1025.0 |
| 20260509124052 | 57 | 188 | 0.0 | 1.0 | 0.00 | 0.09 | 0.00 | 89 | 1025.0 |
| 20260509123553 | 57 | 188 | 0.0 | 2.0 | 0.00 | 0.09 | 0.00 | 89 | 1025.0 |
| 20260509123118 | 57 | 177 | 0.0 | 1.0 | 0.00 | 0.09 | 0.00 | 89 | 1025.0 |
| 20260509122550 | 57 | 286 | 0.0 | 2.0 | 0.00 | 0.09 | 0.00 | 89 | 1025.0 |
| 20260509122050 | 57 | 284 | 0.0 | 4.0 | 0.00 | 0.09 | 0.00 | 89 | 1025.1 |
| 20260509121551 | 57 | 123 | 0.0 | 4.0 | 0.00 | 0.09 | 0.00 | 89 | 1025.1 |
| 20260509121049 | 57 | 276 | 0.0 | 2.0 | 0.00 | 0.09 | 0.00 | 90 | 1025.1 |
| 20260509120548 | 56 | 290 | 0.0 | 4.0 | 0.00 | 0.09 | 0.00 | 90 | 1025.0 |
| 20260509120050 | 56 | 301 | 0.0 | 1.0 | 0.00 | 0.09 | 0.00 | 90 | 1025.1 |
| 20260509115547 | 56 | 207 | 0.0 | 1.0 | 0.00 | 0.09 | 0.09 | 90 | 1025.1 |
| 20260509115047 | 56 | 296 | 0.0 | 1.0 | 0.00 | 0.09 | 0.09 | 90 | 1025.1 |
| 20260509114614 | 56 | 226 | 0.0 | 2.0 | 0.00 | 0.09 | 0.09 | 90 | 1025.0 |
| 20260509114045 | 56 | 281 | 0.0 | 3.0 | 0.00 | 0.09 | 0.09 | 91 | 1025.0 |
| 20260509113545 | 56 | 270 | 0.0 | 3.0 | 0.00 | 0.09 | 0.09 | 91 | 1024.9 |
| 20260509113046 | 56 | 287 | 0.0 | 3.0 | 0.00 | 0.09 | 0.09 | 91 | 1024.9 |
| 20260509112549 | 56 | 287 | 0.0 | 3.0 | 0.00 | 0.09 | 0.09 | 91 | 1024.9 |
| 20260509112044 | 55 | 286 | 0.0 | 1.0 | 0.00 | 0.09 | 0.09 | 91 | 1024.9 |
| 20260509111044 | 55 | 280 | 0.0 | 2.0 | 0.00 | 0.09 | 0.09 | 91 | 1024.9 |
| 20260509110543 | 55 | 280 | 0.0 | 2.0 | 0.00 | 0.09 | 0.09 | 92 | 1024.8 |
| 20260509110053 | 55 | 277 | 0.0 | 0.0 | 0.00 | 0.09 | 0.09 | 91 | 1024.8 |
| 20260509105543 | 55 | 200 | 0.0 | 0.0 | 0.00 | 0.09 | 0.09 | 92 | 1024.8 |
| 20260509105043 | 55 | 200 | 0.0 | 0.0 | 0.00 | 0.09 | 0.09 | 92 | 1024.8 |
| 20260509104543 | 54 | 200 | 0.0 | 0.0 | 0.00 | 0.09 | 0.09 | 91 | 1024.9 |
| 20260509104045 | 54 | 200 | 0.0 | 0.0 | 0.00 | 0.09 | 0.09 | 91 | 1024.8 |
| 20260509103542 | 54 | 200 | 0.0 | 0.0 | 0.00 | 0.09 | 0.09 | 91 | 1024.8 |
| 20260509103044 | 54 | 200 | 0.0 | 0.0 | 0.00 | 0.09 | 0.09 | 91 | 1024.8 |
| 20260509102542 | 54 | 200 | 0.0 | 0.0 | 0.00 | 0.09 | 0.09 | 91 | 1024.8 |
| 20260509102043 | 54 | 200 | 0.0 | 0.0 | 0.00 | 0.09 | 0.09 | 91 | 1024.9 |
| 20260509101553 | 54 | 200 | 0.0 | 0.0 | 0.00 | 0.09 | 0.09 | 91 | 1024.9 |
| 20260509101042 | 54 | 200 | 0.0 | 0.0 | 0.00 | 0.09 | 0.09 | 91 | 1024.9 |
| 20260509100542 | 54 | 199 | 0.0 | 0.0 | 0.00 | 0.09 | 0.09 | 91 | 1024.9 |
| 20260509100041 | 54 | 200 | 0.0 | 0.0 | 0.00 | 0.09 | 0.09 | 91 | 1024.9 |
| 20260509095541 | 53 | 200 | 0.0 | 0.0 | 0.00 | 0.09 | 0.09 | 91 | 1024.9 |
| 20260509095041 | 53 | 200 | 0.0 | 1.0 | 0.00 | 0.09 | 0.09 | 91 | 1024.9 |
| 20260509094540 | 53 | 200 | 0.0 | 1.0 | 0.00 | 0.09 | 0.09 | 91 | 1024.9 |
| 20260509094039 | 53 | 178 | 0.0 | 1.0 | 0.00 | 0.09 | 0.09 | 90 | 1024.9 |
| 20260509093539 | 53 | 178 | 0.0 | 1.0 | 0.00 | 0.09 | 0.09 | 91 | 1024.9 |
| 20260509093039 | 53 | 180 | 0.0 | 1.0 | 0.00 | 0.09 | 0.09 | 89 | 1024.9 |
| 20260509092537 | 53 | 180 | 0.0 | 0.0 | 0.00 | 0.09 | 0.09 | 89 | 1024.9 |
| 20260509092036 | 54 | 180 | 0.0 | 0.0 | 0.00 | 0.09 | 0.09 | 89 | 1024.9 |
| 20260509091541 | 54 | 180 | 0.0 | 0.0 | 0.00 | 0.09 | 0.09 | 89 | 1024.8 |
| 20260509090535 | 54 | 180 | 0.0 | 1.0 | 0.00 | 0.09 | 0.09 | 89 | 1024.7 |
| 20260509090038 | 55 | 180 | 0.0 | 1.0 | 0.00 | 0.09 | 0.09 | 89 | 1024.6 |
| 20260509085534 | 55 | 180 | 0.0 | 1.0 | 0.00 | 0.09 | 0.09 | 89 | 1024.6 |
| 20260509085034 | 55 | 180 | 0.0 | 1.0 | 0.00 | 0.09 | 0.09 | 89 | 1024.6 |
| 20260509084534 | 55 | 192 | 0.0 | 1.0 | 0.00 | 0.09 | 0.09 | 89 | 1024.5 |
| 20260509084034 | 55 | 192 | 0.0 | 1.0 | 0.00 | 0.09 | 0.09 | 89 | 1024.5 |
| 20260509083533 | 55 | 200 | 0.0 | 2.0 | 0.00 | 0.09 | 0.09 | 88 | 1024.4 |
| 20260509083034 | 55 | 284 | 0.0 | 1.0 | 0.00 | 0.09 | 0.09 | 88 | 1024.5 |
| 20260509082533 | 55 | 284 | 0.0 | 0.0 | 0.00 | 0.09 | 0.09 | 87 | 1024.4 |
| 20260509082033 | 55 | 284 | 0.0 | 0.0 | 0.00 | 0.09 | 0.09 | 87 | 1024.3 |
| 20260509081533 | 56 | 284 | 0.0 | 0.0 | 0.00 | 0.09 | 0.09 | 87 | 1024.3 |
| 20260509081033 | 56 | 284 | 0.0 | 0.0 | 0.00 | 0.09 | 0.09 | 87 | 1024.2 |
| 20260509080533 | 56 | 284 | 0.0 | 2.0 | 0.00 | 0.09 | 0.09 | 87 | 1024.1 |
| 20260509080032 | 57 | 284 | 0.0 | 2.0 | 0.00 | 0.09 | 0.09 | 87 | 1024.0 |
| 20260509075533 | 57 | 293 | 0.0 | 2.0 | 0.00 | 0.09 | 0.09 | 87 | 1023.9 |
| 20260509075034 | 57 | 215 | 0.0 | 3.0 | 0.00 | 0.09 | 0.09 | 87 | 1023.9 |
| 20260509074534 | 57 | 291 | 0.0 | 5.0 | 0.00 | 0.09 | 0.09 | 87 | 1023.9 |
| 20260509074033 | 57 | 283 | 0.0 | 2.0 | 0.00 | 0.09 | 0.09 | 86 | 1023.9 |
| 20260509073531 | 58 | 281 | 0.0 | 3.0 | 0.00 | 0.09 | 0.09 | 86 | 1023.8 |
| 20260509073032 | 58 | 320 | 0.0 | 3.0 | 0.00 | 0.09 | 0.09 | 86 | 1023.8 |
| 20260509072533 | 58 | 272 | 0.0 | 3.0 | 0.00 | 0.09 | 0.09 | 85 | 1023.8 |
| 20260509072033 | 58 | 284 | 0.0 | 3.0 | 0.00 | 0.09 | 0.09 | 85 | 1023.7 |
| 20260509071531 | 58 | 283 | 0.0 | 3.0 | 0.00 | 0.09 | 0.09 | 84 | 1023.7 |
| 20260509071031 | 59 | 206 | 1.0 | 3.0 | 0.00 | 0.09 | 0.09 | 84 | 1023.6 |
| 20260509070531 | 59 | 180 | 0.0 | 3.0 | 0.00 | 0.09 | 0.09 | 83 | 1023.5 |
| 20260509070031 | 59 | 157 | 0.0 | 3.0 | 0.00 | 0.09 | 0.09 | 82 | 1023.6 |
| 20260509065530 | 59 | 181 | 0.0 | 3.0 | 0.00 | 0.09 | 0.09 | 82 | 1023.6 |
| 20260509065030 | 59 | 201 | 0.0 | 5.0 | 0.00 | 0.09 | 0.09 | 81 | 1023.6 |
| 20260509064530 | 59 | 213 | 0.0 | 4.0 | 0.00 | 0.09 | 0.09 | 81 | 1023.5 |
| 20260509064032 | 59 | 292 | 0.0 | 5.0 | 0.00 | 0.09 | 0.09 | 81 | 1023.5 |
| 20260509063530 | 60 | 300 | 1.0 | 5.0 | 0.00 | 0.09 | 0.09 | 82 | 1023.4 |
| 20260509063035 | 60 | 289 | 0.0 | 7.0 | 0.00 | 0.09 | 0.09 | 82 | 1023.4 |
| 20260509062529 | 60 | 274 | 1.0 | 7.0 | 0.00 | 0.09 | 0.09 | 82 | 1023.4 |
| 20260509062029 | 60 | 268 | 2.0 | 6.0 | 0.00 | 0.09 | 0.09 | 82 | 1023.4 |
| 20260509061531 | 60 | 131 | 1.0 | 6.0 | 0.00 | 0.09 | 0.09 | 82 | 1023.5 |
| 20260509061029 | 60 | 285 | 1.0 | 4.0 | 0.00 | 0.09 | 0.09 | 82 | 1023.4 |
| 20260509060629 | 60 | 232 | 1.0 | 6.0 | 0.00 | 0.09 | 0.09 | 82 | 1023.3 |
| 20260509060029 | 60 | 254 | 2.0 | 6.0 | 0.00 | 0.09 | 0.09 | 81 | 1023.3 |
| 20260509055530 | 60 | 286 | 2.0 | 5.0 | 0.00 | 0.09 | 0.09 | 81 | 1023.3 |
| 20260509055028 | 60 | 167 | 1.0 | 5.0 | 0.00 | 0.09 | 0.09 | 82 | 1023.3 |
| 20260509054534 | 60 | 293 | 1.0 | 5.0 | 0.00 | 0.09 | 0.09 | 83 | 1023.3 |
| 20260509054028 | 60 | 285 | 1.0 | 4.0 | 0.00 | 0.09 | 0.09 | 83 | 1023.2 |
| 20260509053529 | 60 | 332 | 0.0 | 5.0 | 0.00 | 0.09 | 0.09 | 83 | 1023.2 |
| 20260509053028 | 60 | 284 | 1.0 | 7.0 | 0.00 | 0.09 | 0.09 | 82 | 1023.2 |
| 20260509052528 | 61 | 294 | 2.0 | 7.0 | 0.00 | 0.09 | 0.09 | 81 | 1023.2 |
| 20260509052032 | 61 | 278 | 1.0 | 5.0 | 0.00 | 0.09 | 0.09 | 81 | 1023.1 |
| 20260509051527 | 60 | 271 | 1.0 | 5.0 | 0.00 | 0.09 | 0.09 | 81 | 1023.1 |
| 20260509051027 | 60 | 297 | 1.0 | 5.0 | 0.00 | 0.09 | 0.09 | 81 | 1023.1 |
| 20260509050529 | 60 | 289 | 1.0 | 5.0 | 0.00 | 0.09 | 0.09 | 83 | 1023.1 |
| 20260509050029 | 60 | 288 | 1.0 | 5.0 | 0.00 | 0.09 | 0.09 | 84 | 1023.1 |
| 20260509045526 | 59 | 156 | 1.0 | 5.0 | 0.00 | 0.09 | 0.09 | 85 | 1023.2 |
| 20260509045026 | 59 | 294 | 2.0 | 5.0 | 0.00 | 0.09 | 0.09 | 84 | 1023.2 |
| 20260509044526 | 59 | 288 | 1.0 | 8.0 | 0.00 | 0.09 | 0.09 | 84 | 1023.3 |
| 20260509044026 | 60 | 253 | 4.0 | 8.0 | 0.00 | 0.09 | 0.09 | 83 | 1023.3 |
| 20260509043527 | 60 | 265 | 0.0 | 6.0 | 0.00 | 0.09 | 0.09 | 85 | 1023.3 |
| 20260509043026 | 60 | 259 | 1.0 | 8.0 | 0.00 | 0.09 | 0.09 | 84 | 1023.3 |
| 20260509042525 | 60 | 254 | 2.0 | 8.0 | 0.00 | 0.09 | 0.09 | 84 | 1023.2 |
| 20260509042025 | 60 | 191 | 2.0 | 6.0 | 0.00 | 0.09 | 0.09 | 83 | 1023.3 |
| 20260509041525 | 60 | 230 | 0.0 | 7.0 | 0.00 | 0.09 | 0.09 | 84 | 1023.2 |
| 20260509041028 | 60 | 308 | 2.0 | 9.0 | 0.00 | 0.09 | 0.09 | 83 | 1023.2 |
| 20260509040527 | 60 | 303 | 1.0 | 9.0 | 0.00 | 0.09 | 0.09 | 84 | 1023.2 |
| 20260509040125 | 60 | 299 | 1.0 | 6.0 | 0.00 | 0.09 | 0.09 | 85 | 1023.2 |
| 20260509035524 | 60 | 286 | 0.0 | 6.0 | 0.00 | 0.09 | 0.09 | 85 | 1023.2 |
| 20260509035024 | 60 | 294 | 1.0 | 6.0 | 0.00 | 0.09 | 0.09 | 85 | 1023.3 |
| 20260509034524 | 60 | 302 | 2.0 | 6.0 | 0.00 | 0.09 | 0.09 | 85 | 1023.3 |
| 20260509034024 | 60 | 336 | 2.0 | 6.0 | 0.00 | 0.09 | 0.09 | 84 | 1023.2 |
| 20260509033524 | 60 | 282 | 1.0 | 6.0 | 0.00 | 0.09 | 0.09 | 84 | 1023.3 |
| 20260509033024 | 60 | 279 | 2.0 | 6.0 | 0.00 | 0.09 | 0.09 | 83 | 1023.3 |
| 20260509032523 | 61 | 270 | 2.0 | 7.0 | 0.00 | 0.09 | 0.09 | 84 | 1023.3 |
| 20260509032022 | 60 | 284 | 2.0 | 7.0 | 0.00 | 0.09 | 0.09 | 85 | 1023.3 |
| 20260509031528 | 60 | 291 | 0.0 | 6.0 | 0.00 | 0.09 | 0.09 | 85 | 1023.4 |
| 20260509031022 | 60 | 301 | 2.0 | 6.0 | 0.00 | 0.09 | 0.09 | 84 | 1023.5 |
| 20260509030523 | 60 | 279 | 2.0 | 6.0 | 0.00 | 0.09 | 0.09 | 86 | 1023.6 |
| 20260509030022 | 61 | 279 | 0.0 | 9.0 | 0.00 | 0.09 | 0.09 | 88 | 1023.6 |
| 20260509025521 | 60 | 295 | 1.0 | 7.0 | 0.00 | 0.09 | 0.09 | 89 | 1023.7 |
| 20260509025019 | 59 | 286 | 2.0 | 6.0 | 0.00 | 0.09 | 0.09 | 88 | 1023.7 |
| 20260509024519 | 59 | 285 | 1.0 | 6.0 | 0.00 | 0.09 | 0.09 | 89 | 1023.8 |
| 20260509024020 | 59 | 276 | 1.0 | 6.0 | 0.00 | 0.09 | 0.09 | 90 | 1023.8 |
| 20260509023518 | 59 | 303 | 1.0 | 4.0 | 0.00 | 0.09 | 0.09 | 90 | 1023.8 |
| 20260509023017 | 58 | 291 | 1.0 | 6.0 | 0.00 | 0.09 | 0.09 | 91 | 1023.9 |
| 20260509022517 | 58 | 287 | 1.0 | 6.0 | 0.01 | 0.09 | 0.09 | 91 | 1023.9 |
| 20260509022017 | 58 | 272 | 0.0 | 5.0 | 0.01 | 0.09 | 0.09 | 91 | 1024.0 |
| 20260509021519 | 58 | 301 | 1.0 | 5.0 | 0.01 | 0.09 | 0.09 | 92 | 1024.1 |
| 20260509021016 | 58 | 293 | 2.0 | 5.0 | 0.01 | 0.09 | 0.09 | 92 | 1024.2 |
| 20260509020516 | 58 | 294 | 0.0 | 5.0 | 0.01 | 0.09 | 0.09 | 92 | 1024.2 |
| 20260509020017 | 59 | 283 | 0.0 | 3.0 | 0.01 | 0.09 | 0.09 | 94 | 1024.2 |
| 20260509015015 | 57 | 298 | 1.0 | 4.0 | 0.01 | 0.09 | 0.09 | 93 | 1024.3 |
| 20260509014531 | 57 | 316 | 0.0 | 4.0 | 0.01 | 0.09 | 0.09 | 93 | 1024.3 |
| 20260509014013 | 56 | 297 | 0.0 | 5.0 | 0.01 | 0.09 | 0.09 | 93 | 1024.4 |
| 20260509013513 | 56 | 275 | 1.0 | 5.0 | 0.01 | 0.09 | 0.09 | 93 | 1024.5 |
| 20260509013012 | 56 | 276 | 1.0 | 4.0 | 0.01 | 0.09 | 0.09 | 93 | 1024.5 |
| 20260509012512 | 56 | 285 | 0.0 | 4.0 | 0.00 | 0.09 | 0.08 | 93 | 1024.5 |
| 20260509012012 | 56 | 256 | 1.0 | 4.0 | 0.00 | 0.09 | 0.08 | 93 | 1024.5 |
| 20260509011513 | 56 | 284 | 0.0 | 4.0 | 0.00 | 0.09 | 0.08 | 93 | 1024.5 |
| 20260509011012 | 56 | 339 | 0.0 | 4.0 | 0.00 | 0.09 | 0.08 | 93 | 1024.5 |
| 20260509010511 | 56 | 291 | 0.0 | 3.0 | 0.00 | 0.09 | 0.08 | 93 | 1024.5 |
| 20260509010011 | 56 | 284 | 0.0 | 4.0 | 0.00 | 0.09 | 0.08 | 93 | 1024.5 |
| 20260509005510 | 56 | 275 | 0.0 | 2.0 | 0.01 | 0.09 | 0.08 | 93 | 1024.4 |
| 20260509005010 | 57 | 322 | 0.0 | 4.0 | 0.01 | 0.09 | 0.08 | 94 | 1024.3 |
| 20260509004510 | 56 | 318 | 1.0 | 3.0 | 0.01 | 0.09 | 0.08 | 93 | 1024.3 |
| 20260509004010 | 56 | 299 | 0.0 | 2.0 | 0.01 | 0.09 | 0.08 | 93 | 1024.3 |
| 20260509003510 | 56 | 277 | 0.0 | 5.0 | 0.01 | 0.09 | 0.08 | 94 | 1024.3 |
| 20260509003010 | 56 | 296 | 1.0 | 5.0 | 0.01 | 0.09 | 0.08 | 93 | 1024.2 |
| 20260509002509 | 56 | 275 | 1.0 | 4.0 | 0.01 | 0.09 | 0.08 | 93 | 1024.3 |
| 20260509002009 | 56 | 287 | 0.0 | 4.0 | 0.01 | 0.09 | 0.08 | 94 | 1024.3 |
| 20260509001509 | 56 | 288 | 0.0 | 4.0 | 0.01 | 0.09 | 0.08 | 94 | 1024.3 |
| 20260509001009 | 56 | 282 | 1.0 | 5.0 | 0.01 | 0.09 | 0.08 | 94 | 1024.3 |
| 20260509000508 | 56 | 282 | 1.0 | 5.0 | 0.01 | 0.09 | 0.08 | 93 | 1024.3 |